Location: Unspecified
(0.0000°N, 0.0000°E)
Time: 16:21:09
(UTC-05:00)

CZ-3 Stage 3 - Visible Passes

Search period start: 18 June 2018 00:00
Search period end: 28 June 2018 00:00
Orbit: 407 x 34788 km, 30.8° (Epoch: 18 June)

Date Brightness Start Highest point End Pass type
(mag) Time Alt. Az. Time Alt. Az. Time Alt. Az.
18 Jun 9.7 16:14:26 10° E 17:51:45 17° ENE 18:52:37 10° ENE visible
18 Jun 9.0 21:28:45 10° WSW 22:50:56 21° WSW 00:55:32 10° W visible
19 Jun 8.0 17:16:14 10° SW 19:55:30 74° SW 02:48:14 10° NE visible
20 Jun 6.8 13:33:35 10° SW 13:52:13 31° SSE 23:04:50 10° NE visible
21 Jun 9.7 16:03:27 10° E 17:41:13 17° ENE 18:42:32 10° ENE visible
21 Jun 9.0 21:18:40 10° WSW 22:31:45 21° WSW 00:44:33 10° W visible
22 Jun 8.0 17:06:29 10° SW 19:42:31 75° SW 02:38:41 10° NE visible
23 Jun 6.8 13:24:03 10° SW 13:43:03 31° SSE 22:55:03 10° NE visible
24 Jun 9.7 15:52:35 10° E 17:30:38 17° ENE 18:32:20 10° ENE visible
24 Jun 9.0 21:08:35 10° WSW 22:21:09 21° WSW 00:33:33 10° W visible
25 Jun 8.0 16:56:41 10° SW 19:29:27 76° SW 02:29:06 10° NE visible
26 Jun 6.8 13:14:28 10° SSW 13:33:51 31° SSE 22:45:13 10° NE visible
27 Jun 9.6 15:41:48 10° E 17:20:00 17° ENE 18:22:01 10° ENE visible
